Regional Weather Roundup
Issued by NWS

Home | Current Version | Previous Version | Graphics & Text | Print | Product List | Glossary On
Versions: 1 2 3 4 5 6 7 8 9 10 11 12 13 14 15 16 17 18 19 20 21 22 23 24 25 26 27 28 29 30 31 32 33 34 35 36 37 38 39 40 41 42 43 44 45 46 47 48 49 50
000
ASUS43 KFSD 200010
RWRSD

WEATHER ROUNDUP FOR SOUTH DAKOTA
NATIONAL WEATHER SERVICE SIOUX FALLS SD
600 PM CST SUN NOV 19 2017

NOTE: "FAIR" INDICATES FEW OR NO CLOUDS BELOW 12,000 FEET WITH NO
SIGNIFICANT WEATHER AND/OR OBSTRUCTIONS TO VISIBILITY.


SDZ001>005-009-010-012>017-200100-
NORTHWEST AND NORTH CENTRAL SOUTH DAKOTA

CITY           SKY/WX    TMP DP  RH WIND       PRES   REMARKS
BUFFALO          N/A     42  20  41 S7        29.68F
FAITH            N/A     36  24  62 S13       29.77F
MOBRIDGE       CLOUDY    38  23  55 SE3       29.76F
$$

SDZ012>016-024>037-041>051-057-063-072>074-200100-
SOUTHWEST AND SOUTH CENTRAL SOUTH DAKOTA

CITY           SKY/WX    TMP DP  RH WIND       PRES   REMARKS
RAPID CTY ARPT CLOUDY    43  18  36 E3        29.76F
PIERRE         CLOUDY    39  25  57 NE7       29.80F
CUSTER         CLOUDY    39  13  34 W12       29.82F
ELLSWORTH AFB  CLOUDY    45  19  35 CALM      29.76F
PHILIP         CLOUDY    46  24  42 SE3       29.80F
PINE RIDGE     CLOUDY    43  18  36 CALM      29.82F
SPEARFISH      FAIR      45  18  33 VRB3G13   29.79F
WINNER         FAIR      50  20  30 S7        29.84F
$$

SDZ004>011-016>023-039-040-200100-
NORTHEAST SOUTH DAKOTA

CITY           SKY/WX    TMP DP  RH WIND       PRES   REMARKS
ABERDEEN       CLOUDY    37  22  54 S3        29.81F
WATERTOWN      CLOUDY    35  24  64 S7        29.81F WCI  29
BROOKINGS      CLOUDY    40  25  55 S9        29.85F
SISSETON         N/A     42  25  50 SW9       29.78F
$$

SDZ017-020-022-023-036>040-048>070-200100-
SOUTHEAST SOUTH DAKOTA

CITY           SKY/WX    TMP DP  RH WIND       PRES   REMARKS
SIOUX FALLS    CLOUDY    45  26  47 SW5       29.87F
HURON          CLOUDY    43  23  45 S6        29.83F
CHAMBERLAIN    CLOUDY    41  24  51 CALM      29.83F
MITCHELL       CLOUDY    45  25  45 S6        29.86F
YANKTON        CLOUDY    46  25  43 CALM      29.89R
$$

ABBREVIATIONS USED IN REMARKS
   TC - TEMPERATURE IN CELSIUS
  WCI - WIND CHILL INDEX
   HX - HEAT INDEX
  VSB - VISIBILITY





USA.gov is the U.S. government's official web portal to all federal, state and local government web resources and services.